Simultaneous Nadir Overpasses (SNOs) Predictions

Prediction of SNOs between GOES-16 and TERRA Satellite Orbit:

Table of predicted SNOs for the next 14.0 days since TLE Epoch: 2/26/2022
Index Date Time (GOES-16) GOES-16 Lat,Lon TERRA Lat,Lon Distance(km) Time Diff (sec)
1 02/26/2022 03:40:03 -0.05, -75.20 -0.86, -78.96 428.45 80
2 02/28/2022 03:27:49 -0.05, -75.20 -0.24, -76.01 92.54 80
3 03/02/2022 03:12:56 -0.05, -75.21 0.44, -73.06 244.52 80
4 03/02/2022 15:36:50 0.05, -75.24 0.65, -78.22 338.89 80
5 03/04/2022 15:21:57 0.05, -75.26 0.03, -75.27 2.66 80
6 03/06/2022 15:09:43 0.05, -75.29 -0.60, -72.31 338.32 80
7 03/07/2022 03:33:45 -0.05, -75.27 -0.53, -77.50 253.90 80
8 03/09/2022 03:18:51 -0.05, -75.30 0.10, -74.55 85.48 80
9 03/09/2022 15:42:46 0.05, -75.34 0.99, -79.71 497.61 80
10 03/11/2022 03:06:38 -0.04, -75.34 0.74, -71.60 425.17 80
11 03/11/2022 15:29:11 0.04, -75.37 0.35, -76.76 157.82 1
